Date String (YYYY-MM-DD hh:mm:ss) UTC,Instrument flags,Ambient pressure (hPa),Sample flow (lpm),Bypass flow (lpm),Sample temperature (°C),Ambient temperature (°C),ASC tube jacket temperature (°C),LED temperature (°C),Box temperature (°C),Sample RH (%),Span deviation,Mass concentration (μg/m³),Mass concentration (μg/m³),Mass concentration (μg/m³)
DateTimeUTC,F1_M11,P_M11,Q1_M11,Q2_M11,T1_M11,T2_M11,T3_M11,T4_M11,T5_M11,U1_M11,ZSPAN_M11,X0_M11,X2_M11,X1_M11
2022-07-08 19:00:00,,0832.3,5.01,0.00,30.0,28.2,00.0,38.6,31.6,32.7,0000.0,0014.63,0005.90,0004.94
2022-07-08 19:01:00,,0832.3,5.00,0.00,30.0,27.7,00.0,38.6,31.5,32.9,0000.0,0014.79,0005.81,0004.89
2022-07-08 19:02:00,,0832.2,5.00,0.00,30.0,27.2,00.0,38.5,31.4,32.4,0000.0,0014.41,0005.78,0004.84
2022-07-08 19:03:00,,0832.2,5.00,0.00,29.9,27.1,00.0,38.5,31.4,33.7,0000.0,0014.04,0005.76,0004.83
2022-07-08 19:04:00,,0832.2,5.00,0.00,29.8,27.2,00.0,38.5,31.2,34.4,0000.0,0014.26,0005.76,0004.81
2022-07-08 19:05:00,,0832.2,5.01,0.00,29.8,27.4,00.0,38.5,31.2,34.1,0000.0,0014.18,0005.73,0004.77
2022-07-08 19:06:00,,0832.2,5.00,0.00,29.8,27.6,00.0,38.4,31.3,33.7,0000.0,0013.93,0005.64,0004.72
2022-07-08 19:07:00,,0832.2,5.00,0.00,29.8,27.8,00.0,38.5,31.4,33.9,0000.0,0013.61,0005.60,0004.67
2022-07-08 19:08:00,,0832.2,4.99,0.00,29.8,27.9,00.0,38.5,31.4,34.2,0000.0,0013.38,0005.57,0004.64
2022-07-08 19:09:00,,0832.2,5.00,0.00,29.8,28.1,00.0,38.5,31.5,34.0,0000.0,0013.58,0005.57,0004.63
2022-07-08 19:10:00,,0832.2,5.00,0.00,29.8,28.0,00.0,38.4,31.5,34.0,0000.0,0013.86,0005.52,0004.62
2022-07-08 19:11:00,,0832.2,4.99,0.00,29.8,27.5,00.0,38.4,31.4,34.1,0000.0,0014.20,0005.54,0004.63
2022-07-08 19:12:00,,0832.2,5.00,0.00,29.7,27.1,00.0,38.4,31.3,33.8,0000.0,0014.17,0005.59,0004.64
2022-07-08 19:13:00,,0832.3,5.00,0.00,29.7,27.1,00.0,38.4,31.2,34.2,0000.0,0014.14,0005.61,0004.65
2022-07-08 19:14:00,,0832.3,5.00,0.00,29.6,27.2,00.0,38.3,31.1,34.3,0000.0,0013.84,0005.56,0004.64
2022-07-08 19:15:00,,0832.2,5.01,0.00,29.6,27.4,00.0,38.3,31.2,33.9,0000.0,0013.75,0005.53,0004.63
2022-07-08 19:16:00,,0832.2,5.00,0.00,29.6,27.6,00.0,38.3,31.2,33.7,0000.0,0013.38,0005.49,0004.62
2022-07-08 19:17:00,,0832.3,5.00,0.00,29.6,27.8,00.0,38.3,31.3,34.0,0000.0,0014.66,0005.47,0004.61
2022-07-08 19:18:00,,0832.2,4.99,0.00,29.6,28.0,00.0,38.3,31.4,33.2,0000.0,0014.57,0005.49,0004.61
2022-07-08 19:19:00,,0832.2,5.01,0.00,29.6,28.1,00.0,38.3,31.4,32.4,0000.0,0014.89,0005.48,0004.59
2022-07-08 19:20:00,,0832.2,5.01,0.00,29.7,28.1,00.0,38.3,31.5,32.0,0000.0,0015.13,0005.41,0004.53
2022-07-08 19:21:00,,0832.2,5.00,0.00,29.6,27.6,00.0,38.3,31.4,31.5,0000.0,0014.59,0005.38,0004.47
2022-07-08 19:22:00,,0832.1,4.99,0.00,29.6,27.2,00.0,38.2,31.3,31.6,0000.0,0014.06,0005.31,0004.40
2022-07-08 19:23:00,,0832.1,5.00,0.00,29.5,27.1,00.0,38.2,31.2,32.2,0000.0,0014.39,0005.26,0004.36
2022-07-08 19:24:00,,0832.1,5.00,0.00,29.5,27.2,00.0,38.2,31.1,31.8,0000.0,0014.16,0005.17,0004.31
2022-07-08 19:25:00,,0832.1,5.02,0.00,29.5,27.4,00.0,38.2,31.1,32.0,0000.0,0014.32,0005.16,0004.27
2022-07-08 19:26:00,,0832.2,5.00,0.00,29.5,27.6,00.0,38.2,31.2,32.2,0000.0,0014.61,0005.17,0004.25
2022-07-08 19:27:00,,0832.1,4.99,0.00,29.5,27.8,00.0,38.2,31.2,32.5,0000.0,0014.40,0005.15,0004.23
2022-07-08 19:28:00,,0832.1,5.00,0.00,29.5,27.9,00.0,38.2,31.3,32.3,0000.0,0013.26,0005.18,0004.22
2022-07-08 19:29:00,,0832.2,5.00,0.00,29.5,28.1,00.0,38.2,31.4,32.3,0000.0,0012.74,0005.15,0004.19
2022-07-08 19:30:00,,0832.1,5.00,0.00,29.6,28.1,00.0,38.2,31.4,32.2,0000.0,0012.12,0005.11,0004.19
2022-07-08 19:31:00,,0832.1,5.00,0.00,29.5,27.6,00.0,38.2,31.3,32.1,0000.0,0011.43,0005.12,0004.22
2022-07-08 19:32:00,,0832.1,4.99,0.00,29.5,27.2,00.0,38.1,31.2,32.5,0000.0,0011.53,0005.07,0004.23
2022-07-08 19:33:00,,0832.1,4.99,0.00,29.5,27.1,00.0,38.1,31.1,32.5,0000.0,0011.30,0005.10,0004.25
2022-07-08 19:34:00,,0832.1,5.00,0.00,29.4,27.2,00.0,38.1,31.0,32.7,0000.0,0010.74,0005.12,0004.26
2022-07-08 19:35:00,,0832.1,5.00,0.00,29.4,27.3,00.0,38.1,31.1,32.7,0000.0,0011.33,0005.20,0004.27
2022-07-08 19:36:00,,0832.1,4.99,0.00,29.4,27.5,00.0,38.1,31.1,33.2,0000.0,0011.69,0005.22,0004.28
2022-07-08 19:37:00,,0832.1,5.00,0.00,29.4,27.7,00.0,38.1,31.2,32.7,0000.0,0011.95,0005.21,0004.28
2022-07-08 19:38:00,,0832.1,5.01,0.00,29.4,27.9,00.0,38.1,31.3,32.8,0000.0,0012.06,0005.20,0004.28
2022-07-08 19:39:00,,0832.1,5.00,0.00,29.4,28.1,00.0,38.1,31.3,33.1,0000.0,0012.01,0005.14,0004.28
2022-07-08 19:40:00,,0832.1,5.00,0.00,29.5,28.2,00.0,38.2,31.4,33.4,0000.0,0012.28,0005.14,0004.26
2022-07-08 19:41:00,,0832.0,5.01,0.00,29.5,28.1,00.0,38.1,31.4,33.6,0000.0,0012.65,0005.18,0004.26
2022-07-08 19:42:00,,0832.1,5.00,0.00,29.5,27.4,00.0,38.1,31.3,33.8,0000.0,0013.14,0005.21,0004.24
2022-07-08 19:43:00,,0832.1,5.00,0.00,29.4,27.1,00.0,38.1,31.2,33.7,0000.0,0013.58,0005.24,0004.24
2022-07-08 19:44:00,,0832.1,5.00,0.00,29.4,27.1,00.0,38.1,31.0,33.5,0000.0,0013.64,0005.22,0004.23
2022-07-08 19:45:00,,0832.1,5.00,0.00,29.3,27.2,00.0,38.1,31.0,33.3,0000.0,0013.57,0005.19,0004.21
2022-07-08 19:46:00,,0832.0,5.00,0.00,29.3,27.4,00.0,38.1,31.1,33.2,0000.0,0013.72,0005.13,0004.21
2022-07-08 19:47:00,,0832.0,5.00,0.00,29.4,27.6,00.0,38.1,31.1,33.1,0000.0,0014.17,0005.11,0004.21
2022-07-08 19:48:00,,0832.1,5.00,0.00,29.4,27.8,00.0,38.1,31.2,33.1,0000.0,0013.62,0005.06,0004.19
2022-07-08 19:49:00,,0832.1,5.00,0.00,29.4,28.0,00.0,38.1,31.3,33.2,0000.0,0013.38,0005.05,0004.18
2022-07-08 19:50:00,,0832.0,5.00,0.00,29.4,28.1,00.0,38.1,31.3,32.9,0000.0,0013.23,0005.10,0004.18
2022-07-08 19:51:00,,0832.0,5.01,0.00,29.4,27.7,00.0,38.1,31.3,32.9,0000.0,0013.09,0005.12,0004.21
2022-07-08 19:52:00,,0832.0,5.01,0.00,29.4,27.2,00.0,38.0,31.2,33.2,0000.0,0012.72,0005.07,0004.20
2022-07-08 19:53:00,,0832.0,5.01,0.00,29.4,27.0,00.0,38.0,31.1,32.8,0000.0,0012.54,0005.03,0004.19
2022-07-08 19:54:00,,0832.0,5.01,0.00,29.3,27.1,00.0,38.0,31.0,33.1,0000.0,0011.85,0005.05,0004.19
2022-07-08 19:55:00,,0832.0,5.00,0.00,29.3,27.2,00.0,38.0,31.0,33.5,0000.0,0012.21,0005.10,0004.19
2022-07-08 19:56:00,,0832.0,5.00,0.00,29.3,27.4,00.0,38.0,31.0,33.5,0000.0,0013.54,0005.16,0004.20
2022-07-08 19:57:00,,0832.0,5.00,0.00,29.3,27.6,00.0,38.0,31.1,33.5,0000.0,0013.78,0005.19,0004.20
2022-07-08 19:58:00,,0831.9,4.99,0.00,29.3,27.8,00.0,38.0,31.2,33.1,0000.0,0013.32,0005.22,0004.19
2022-07-08 19:59:00,,0832.0,5.00,0.00,29.3,28.0,00.0,38.0,31.3,33.0,0000.0,0013.20,0005.21,0004.18
